Regional Weather Roundup
Issued by NWS

Home | Current Version | Previous Version | Text Only | Print | Product List | Glossary Off
Versions: 1 2 3 4 5 6 7 8 9 10 11 12 13 14 15 16 17 18 19 20 21 22 23 24 25 26 27 28 29 30 31 32 33 34 35 36 37 38 39 40 41 42 43 44 45 46 47 48 49 50

000
ASUS43 KMPX 050601
RWRMN
WEATHER ROUNDUP FOR MINNESOTA
NATIONAL WEATHER SERVICE TWIN CITIES/CHANHASSEN MN
100 AM CDT TUE MAY 05 2015


NOTE: "FAIR" INDICATES FEW OR NO CLOUDS BELOW 12,000 FEET WITH NO
SIGNIFICANT WEATHER AND/OR OBSTRUCTIONS TO VISIBILITY. N/A MEANS
CURRENT SKY AND/OR WEATHER CONDITIONS ARE NOT AVAILABLE.

MNZ060>063-068>070-050700-
   Twin Cities Metro

CITY           SKY/WX    TMP DP  RH WIND       PRES   REMARKS
TWIN CITIES    PTCLDY    57  28  33 NE5       30.20R
6HR MIN TEMP:  57; 6HR MAX TEMP:  69;

ST PAUL        CLEAR     57  29  34 CALM      30.21R
CRYSTAL        CLEAR     49  33  54 CALM      30.20R
BLAINE         CLEAR     52  30  43 CALM      30.21R
LAKEVILLE      PTCLDY    48  37  66 CALM      30.19S
EDEN PRAIRIE   CLEAR     55  30  38 N5        30.19R
6HR MIN TEMP:  54; 6HR MAX TEMP:  69;

SOUTH ST PAUL  CLEAR     52  36  54 CALM      30.20R
LAKE ELMO      FAIR      45  37  76 CALM      30.22R
$$
MNZ001>005-007-008-013>017-022>024-027-028-050700-
   Northwest Minnesota

CITY           SKY/WX    TMP DP  RH WIND       PRES   REMARKS
BEMIDJI        CLEAR     40  27  61 CALM      30.22S
HALLOCK        CLEAR     46  19  34 SE9       30.16S
ROSEAU         CLEAR     43  30  61 CALM      30.19S
WARROAD        CLEAR     41  36  81 S3        30.20S
THIEF RVR FALL CLEAR     50  25  37 SE8       30.20S
CROOKSTON      CLEAR     45  27  49 SE7       30.19S
FOSSTON        FAIR      39  23  52 SE3       30.21S
DETROIT LAKES  CLEAR     48  32  53 E3        30.23R
MOORHEAD       CLEAR     48  27  43 SE5       30.20S
PARK RAPIDS    CLEAR     44  32  62 CALM      30.23R
MAHNOMEN       FAIR      47  29  49 SE7       30.21S
$$
MNZ006-009>011-018-025>026-050700-
   North Central Minnesota

CITY           SKY/WX    TMP DP  RH WIND       PRES   REMARKS
BAUDETTE       CLEAR     42  36  79 CALM      30.20S
FLAG ISLAND    CLEAR     48  39  71 CALM      30.18S
INTL FALLS     CLEAR     31  28  89 CALM      30.21S
6HR MIN TEMP:  31; 6HR MAX TEMP:  62;

WASKISH        CLEAR     43  30  61 CALM      30.21S
BIG FORK       CLEAR     34  27  75 CALM      30.24R
LONGVILLE      CLEAR     36  32  87 CALM      30.23S
GRAND RAPIDS   CLEAR     39  25  56 CALM      30.24R
CRANE LAKE     CLEAR     30  28  93 CALM      30.25S
COOK           CLEAR     34  27  75 CALM      30.25R HAZE
WALKER         FAIR      41  30  64 CALM      30.23R
$$
MNZ012-019>021-037-050700-
   Northeast Minnesota

CITY           SKY/WX    TMP DP  RH WIND       PRES   REMARKS
DULUTH         FAIR      42  28  57 CALM      30.24R
6HR MIN TEMP:  41; 6HR MAX TEMP:  65;

ELY            CLEAR     34  27  75 CALM      30.25S
HIBBING        CLEAR     35  25  66 CALM      30.24R
EVELETH        CLEAR     34  30  86 CALM      30.26R
DULUTH HARBOR  CLEAR     46  36  66 CALM      30.25S
TWO HARBORS    CLEAR     48  28  46 N5        30.23S
SILVER BAY     CLEAR     34  27  75 CALM      30.24S
GRAND MARAIS     N/A     38  30  73 CALM      30.25R
G MARAIS ARPRT CLEAR     34  27  75 CALM      30.26R
$$
MNZ029>031-032-039>041-046>048-054>057-064-050700-
   West Central Minnesota

CITY           SKY/WX    TMP DP  RH WIND       PRES   REMARKS
FERGUS FALLS   CLEAR     52  32  46 E5        30.22R
WHEATON        CLEAR     43  27  52 E5        30.21S
MORRIS         CLEAR     54  30  40 E10       30.19R
ALEXANDRIA     CLEAR     51  28  41 E8        30.22S
ELBOW LAKE     FAIR      54  32  43 E9        30.20S
WADENA         CLEAR     41  32  70 CALM      30.22S
GLENWOOD       CLEAR     46  32  57 NE7       30.22R
APPLETON       CLEAR     48  34  57 E7        30.19R
BENSON         CLEAR     52  30  43 E6        30.20R
ORTONVILLE     CLEAR     54  34  47 E9        30.18S
MADISON        CLEAR     45  28  53 NE7       30.19R
WILLMAR        FAIR      55  30  38 E7        30.22R
$$
MNZ033>034-036-042>043-049>051-058-059-050700-
   Central Minnesota

CITY           SKY/WX    TMP DP  RH WIND       PRES   REMARKS
ST CLOUD       CLEAR     52  22  30 NE5       30.22R
6HR MIN TEMP:  49; 6HR MAX TEMP:  67;

SAUK CENTRE    FAIR      50  30  45 NE7       30.22R
PAYNESVILLE    CLEAR     44  32  64 CALM      30.22R
AITKIN         CLEAR     36  28  75 CALM      30.22S
PINE RIVER     CLEAR     36  28  75 CALM      30.26S
BRAINERD       CLEAR     37  29  72 CALM      30.23S
STAPLES        CLEAR     43  30  61 CALM      30.23S
LONG PRAIRIE   FAIR      46  30  53 CALM      30.23R
LITTLE FALLS   CLEAR     41  32  70 CALM      30.23R
LITCHFIELD     CLEAR     54  28  37 NE3       30.22R
BUFFALO        CLEAR     52  29  41 N3        30.22R
MAPLE LAKE     CLEAR     52  29  41 N3        30.22R
$$
MNZ037-044-045-052-053-050700-
   East Central Minnesota

CITY           SKY/WX    TMP DP  RH WIND       PRES   REMARKS
PRINCETON      CLEAR     48  25  40 CALM      30.23R
MORA           CLEAR     37  32  81 CALM      30.24R
CAMBRIDGE      CLEAR     50  34  53 CALM      30.21R
RUSH CITY      PTCLDY    47  25  40 NE6       30.23R
MOOSE LAKE     CLEAR     34  32  93 CALM      30.22S
HINCKLEY       FAIR      37  30  75 N3        30.23S
CLOQUET        CLEAR     36  25  64 N3        30.24S
MCGREGOR       CLEAR     36  32  87 CALM      30.24S
$$
MNZ071>073-080-081-089-090-097-098-050700-
   Southwest Minnesota

CITY           SKY/WX    TMP DP  RH WIND       PRES   REMARKS
MONTEVIDEO     CLEAR     50  30  46 S6        30.21R
GRANITE FALLS  CLEAR     54  29  38 E5        30.21R
CANBY          CLEAR     45  32  60 CALM      30.20R
MARSHALL       CLEAR     52  28  40 CALM      30.18S
REDWOOD FALLS  PTCLDY    57  28  33 E6        30.19R
OLIVIA         CLEAR     52  27  37 E8        30.19R
WORTHINGTON    MOCLDY    48  27  43 NE3       30.17S
JACKSON        CLOUDY    54  32  43 E7        30.17S
TRACY          PTCLDY    52  32  45 E3        30.18S
SLAYTON        PTCLDY    53  29  40 CALM      30.19R
$$
MNZ065>067-074>077-082>085-091>093-050700-
   South Central Minnesota

CITY           SKY/WX    TMP DP  RH WIND       PRES   REMARKS
MANKATO        PTCLDY    57  41  54 NE7       30.18R
NEW ULM        PTCLDY    55  28  35 NE5       30.19R
ST JAMES       MOCLDY    54  28  37 E5        30.18S
FAIRMONT       CLOUDY    54  30  40 NE6       30.16S
GLENCOE        PTCLDY    53  34  49 CALM      30.20R
FARIBAULT      PTCLDY    43  39  87 CALM      30.19R
OWATONNA       MOCLDY    48  36  61 CALM      30.18R
WASECA         MOCLDY    52  36  54 NE7       30.19R
ALBERT LEA     CLOUDY    54  39  58 NE5       30.17R
$$
MNZ078>079-086>088-094>096-050700-
   Southeast Minnesota

CITY           SKY/WX    TMP DP  RH WIND       PRES   REMARKS
ROCHESTER      CLOUDY    55  36  48 NE8       30.19R
6HR MIN TEMP:  54; 6HR MAX TEMP:  63;

RED WING       PTCLDY    46  39  76 CALM      30.19R
STANTON        PTCLDY    42  36  77 CALM      30.18R
DODGE CENTER   MOCLDY    54  36  50 NE5       30.18R
WINONA         CLOUDY    54  46  76 CALM      30.19R
AUSTIN         CLOUDY    54  41  62 NE5       30.16S
PRESTON        CLOUDY    55  38  52 NE6       30.18R
$$
ABBREVIATIONS USED IN REMARKS
   TC - TEMPERATURES IN CELSIUS
  WCI - WIND CHILL INDEX
   HX - HEAT INDEX
  VSB - VISIBILITY
$$


USA.gov is the U.S. government's official web portal to all federal, state and local government web resources and services.